Regional Weather Roundup
Issued by NWS Upton, NY

Current Version | Previous Version | Graphics & Text | Print | Product List | Glossary On
Versions: 1 2 3 4 5 6 7 8 9 10 11 12 13 14 15 16 17 18 19 20 21 22 23 24 25 26 27 28 29 30 31 32 33 34 35 36 37 38 39 40 41 42 43 44 45 46 47 48 49 50
000
ASUS41 KOKX 102004
RWROKX

REGIONAL WEATHER ROUNDUP
NATIONAL WEATHER SERVICE NEW YORK NY
300 PM EST WED FEB 10 2016

NOTE: "FAIR" INDICATES FEW OR NO CLOUDS BELOW 12,000 FEET WITH NO
SIGNIFICANT WEATHER AND/OR OBSTRUCTIONS TO VISIBILITY.

NYZ071-072-176-178-NJZ106-104-102100-
NEW YORK CITY METRO AREA


CITY           SKY/WX    TMP DP  RH WIND       PRES   REMARKS
CENTRAL PARK   CLOUDY    38  19  46 W10G18    29.64R WCI  31
LAGUARDIA APRT CLOUDY    39  20  46 W16       29.62R WCI  30
KENNEDY INTL   CLOUDY    39  21  48 W16G25    29.63R WCI  30
NEWARK/LIBERTY PTSUNNY   39  19  44 W15G24    29.63R WCI  31
BRNX BOT. GARD   N/A     37  21  52 W25       29.61F WCI  26
TETERBORO      CLOUDY    38  19  46 W15G22    29.61R WCI  29
$$

NYZ177-179-078>081-102100-
LONG ISLAND NEW YORK

CITY           SKY/WX    TMP DP  RH WIND       PRES   REMARKS
FARMINGDALE    CLOUDY    39  21  48 NW12      29.61R WCI  32
ISLIP          PTSUNNY   38  23  55 W12       29.58R WCI  30
SHIRLEY        CLOUDY    39  26  59 W10       29.60R WCI  32
RIVERHEAD        N/A     39  27  60 NW6       29.56S WCI  35
WESTHAMPTON    CLOUDY    38  28  67 W10       29.60R WCI  31
EAST HAMPTON   CLOUDY    35  29  81 W6        29.57S WCI  30
MONTAUK POINT    N/A     36  30  79 W10       29.58R WCI  28
$$

NYZ052-065-067-102100-
HUDSON VALLEY

CITY           SKY/WX    TMP DP  RH WIND       PRES   REMARKS
WHITE PLAINS   PTSUNNY   37  18  46 NW15G21   29.58R WCI  28
NEWBURGH       CLOUDY    36  19  51 W12G17    29.58R WCI  27
MONTGOMERY     CLOUDY    37  17  44 W10G20    29.58R WCI  30
POUGHKEEPSIE   CLOUDY    39  19  44 W14       29.58R WCI  31
ALBANY         CLOUDY    35  23  61 NW9       29.56S WCI  28
$$

NJZ001-105-106-008-010-013-015-019>022-104-102100-
NEW JERSEY

CITY           SKY/WX    TMP DP  RH WIND       PRES   REMARKS
NEWARK/LIBERTY PTSUNNY   39  19  44 W15G24    29.63R WCI  31
TETERBORO      CLOUDY    38  19  46 W15G22    29.61R WCI  29
CALDWELL       CLOUDY    38  18  44 NW12G17   29.62R WCI  30
MORRISTOWN     PTSUNNY   37  21  52 NW15      29.63R WCI  28
SOMERVILLE     CLOUDY    36  19  50 W10G20    29.64R WCI  28
SUSSEX         CLOUDY    36  19  50 W7        29.61R WCI  30
ANDOVER          N/A     34  19  54 W10G18    29.62R WCI  26
TRENTON        PTSUNNY   35  18  49 NW12G21   29.67S WCI  27
MILLVILLE      CLOUDY    36  19  50 W13G24    29.73R WCI  27
ATLANTIC CITY  CLOUDY    34  20  56 W17G25    29.71R WCI  23
WRIGHTSTOWN    CLOUDY    35  21  57 W13       29.67R WCI  26
TOMS RIVER     CLOUDY    36  18  48 W17G23    29.69R WCI  25
BELMAR         CLOUDY    36  18  48 W17G24    29.66R WCI  25
$$

PAZ047>061-062-071-102100-
EASTERN PENNSYLVANIA

CITY           SKY/WX    TMP DP  RH WIND       PRES   REMARKS
PHILADELPHIA   CLOUDY    35  16  45 W15       29.73R WCI  25
ALLENTOWN      PTSUNNY   33  17  51 W12G26    29.67S WCI  24
SCRANTON       CLOUDY    31  19  61 W13       29.62R WCI  21
$$

CTZ002-004>006-009-010-012-RIZ004-006-007-MAZ004-011-015-102100-
SOUTHERN NEW ENGLAND
 IN CT

CITY           SKY/WX    TMP DP  RH WIND       PRES   REMARKS
BRADLEY INTL   CLOUDY    34  29  82 CALM      29.55R
HARTFORD       CLOUDY    37  30  75 S5        29.57R WCI  33
DANBURY        CLOUDY    37  16  42 W13       29.58R WCI  29
WTRBRY/OXFORD  NOT AVBL
BRIDGEPORT     CLOUDY    40  23  50 W9        29.58R WCI  34
MERIDEN        CLOUDY    39  25  57 VRB3      29.57R
NEW HAVEN      CLOUDY    36  28  73 S6        29.57S WCI  31
CHESTER        CLOUDY    36  30  80 W5        29.56S WCI  32
GROTON         CLOUDY    36  32  85 W8        29.57R WCI  30
WILLIMANTIC    CLOUDY    36  27  69 W3        29.56R

 IN RI

CITY           SKY/WX    TMP DP  RH WIND       PRES   REMARKS
PROVIDENCE     LGT SNOW  33  31  92 CALM      29.56S FOG
BLOCK ISLAND   CLOUDY    36  32  87 W9        29.55S WCI  29
WESTERLY       CLOUDY    36  31  82 W3        29.57R

 IN MA

CITY           SKY/WX    TMP DP  RH WIND       PRES   REMARKS
BOSTON         FLURRIES  34  29  82 S6        29.54S WCI  29
WORCESTER      CLOUDY    31  25  78 W9        29.50R WCI  23
WESTFIELD      CLOUDY    33  29  85 S5        29.54S WCI  29
PROVINCETOWN   LGT RAIN  34  28  79 CALM      29.56S
NANTUCKET      CLOUDY    36  31  82 N8        29.56R WCI  30
$$

ANZ330-335-338-340-345-350-353-355-102100-
COASTAL MARINE OBSERVATIONS


STATION/POSITION TIME  SKY/WX   TEMP    WIND        PRES    VSBY  WAVE
                                AIR SEA DIR/SP/G                  HT/PER
                 (UTC)          (F)     (DEG/KT/KT) (MB)    (MI)  (FT/S)
NY HARB ENTRANCE 1850            38 43  280/ 19/ 21 1002.4          4/11
4S FIRE IS       NOT AVBL
20S FIRE ISLAND  1850            35 44  290/ 17/ 21 1002.6          6/ 5
GREAT SOUTH BAY  NOT AVBL
23SW MTP         1950            37 45  280/ 17/ 19 1001.3          5/11
HUDSON CANYON    1850            38 49              1002.8          8/11
KINGS POINT      1900            38 38  350/ 15/ 20 1002.0
EXECUTION ROCKS  NOT AVBL
CENTRAL LI SOUND 1900            36     270/ 10/ 12   N/A           1/ 3
EASTERN LI SOUND 1900            36 42  280/ 10/ 14   N/A
ROBBINS REEF     1900            37     280/ 18/ 24 1002.1
$$


>>>>>>>>>>>>>>>>>>>>>>>>>>>> KEY <<<<<<<<<<<<<<<<<<<<<<<<<<<
>                                                          <
>     SKY/WX - SKY CONDITION/PRESENT WEATHER               <
>     TMP    - TEMPERATURE IN FAHRENHEIT                   <
>     DP     - DEWPOINT IN FAHRENHEIT                      <
>     RH     - RELATIVE HUMIDITY IN PERCENT                <
>     WIND   - DIRECTION AND SPEED IN MPH                  <
>     PRES   - MEAN SEA LEVEL PRESSURE IN INCHES OF HG     <
>     WCI    - WIND CHILL INDEX                            <
>     VSB    - VISIBILITY IN MILES                         <
>     HX     - HEAT INDEX                                  <
>     TC     - TEMPERATURE IN CELSIUS                      <
>     VRB    - VARIABLE WIND DIRECTION                     <
>                                                          <
>>>>>>>>>>>>>>>>>>>>>>>>>>>> KEY <<<<<<<<<<<<<<<<<<<<<<<<<<<





USA.gov is the U.S. government's official web portal to all federal, state and local government web resources and services.